<?xml version="1.0" encoding="UTF-8" standalone="no" ?>
<gpx xmlns="http://www.topografix.com/GPX/1/1" creator="MapSource 6.11.6" version="1.1" xmlns:xsi="http://www.w3.org/2001/XMLSchema-instance" xsi:schemaLocation="http://www.topografix.com/GPX/1/1 http://www.topografix.com/GPX/1/1/gpx.xsd">

  <metadata>
    <link href="http://www.garmin.com">
      <text>Garmin International</text>
    </link>
    <time>2010-01-30T12:40:56Z</time>
    <bounds maxlat="50.674359" maxlon="6.480702" minlat="50.628350" minlon="6.353257"/>
  </metadata>

  <trk>
    <name>Kroenungsweg-5 Simonskall-Heimbach</name>
    <extensions>
      <gpxx:TrackExtension xmlns:gpxx="http://www.garmin.com/xmlschemas/GpxExtensions/v3" xmlns:xsi="http://www.w3.org/2001/XMLSchema-instance" xsi:schemaLocation="http://www.garmin.com/xmlschemas/GpxExtensions/v3 http://www.garmin.com/xmlschemas/GpxExtensions/v3/GpxExtensionsv3.xsd">
        <gpxx:DisplayColor>White</gpxx:DisplayColor>
      </gpxx:TrackExtension>
    </extensions>
    <trkseg>
      <trkpt lat="50.633376" lon="6.480702">
        <ele>0.000000</ele>
        <time>2009-12-08T16:36:34Z</time>
      </trkpt>
      <trkpt lat="50.633481" lon="6.480389">
        <ele>0.000000</ele>
        <time>2009-12-08T16:36:34Z</time>
      </trkpt>
      <trkpt lat="50.633601" lon="6.480120">
        <ele>0.000000</ele>
        <time>2009-12-08T16:36:34Z</time>
      </trkpt>
      <trkpt lat="50.633713" lon="6.479777">
        <ele>0.000000</ele>
        <time>2009-12-08T16:36:34Z</time>
      </trkpt>
      <trkpt lat="50.633764" lon="6.479235">
        <ele>0.000000</ele>
        <time>2009-12-08T16:36:34Z</time>
      </trkpt>
      <trkpt lat="50.633743" lon="6.478795">
        <ele>0.000000</ele>
        <time>2009-12-08T16:36:34Z</time>
      </trkpt>
      <trkpt lat="50.633723" lon="6.478393">
        <ele>0.000000</ele>
        <time>2009-12-08T16:36:34Z</time>
      </trkpt>
      <trkpt lat="50.633778" lon="6.477980">
        <ele>0.000000</ele>
        <time>2009-12-08T16:36:34Z</time>
      </trkpt>
      <trkpt lat="50.633798" lon="6.477857">
        <ele>0.000000</ele>
        <time>2009-12-08T16:36:34Z</time>
      </trkpt>
      <trkpt lat="50.633648" lon="6.477556">
        <ele>0.000000</ele>
        <time>2009-12-08T16:36:34Z</time>
      </trkpt>
      <trkpt lat="50.633451" lon="6.477073">
        <ele>0.000000</ele>
        <time>2009-12-08T16:36:34Z</time>
      </trkpt>
      <trkpt lat="50.633362" lon="6.476950">
        <ele>0.000000</ele>
        <time>2009-12-08T16:36:34Z</time>
      </trkpt>
      <trkpt lat="50.633070" lon="6.476794">
        <ele>0.000000</ele>
        <time>2009-12-08T16:36:34Z</time>
      </trkpt>
      <trkpt lat="50.632791" lon="6.476671">
        <ele>0.000000</ele>
        <time>2009-12-08T16:36:34Z</time>
      </trkpt>
      <trkpt lat="50.632614" lon="6.476628">
        <ele>0.000000</ele>
        <time>2009-12-08T16:36:34Z</time>
      </trkpt>
      <trkpt lat="50.632464" lon="6.476843">
        <ele>0.000000</ele>
        <time>2009-12-08T16:36:34Z</time>
      </trkpt>
      <trkpt lat="50.632120" lon="6.478119">
        <ele>0.000000</ele>
        <time>2009-12-08T16:36:34Z</time>
      </trkpt>
      <trkpt lat="50.632032" lon="6.478575">
        <ele>0.000000</ele>
        <time>2009-12-08T16:36:34Z</time>
      </trkpt>
      <trkpt lat="50.631930" lon="6.478935">
        <ele>0.000000</ele>
        <time>2009-12-08T16:36:34Z</time>
      </trkpt>
      <trkpt lat="50.631678" lon="6.479428">
        <ele>0.000000</ele>
        <time>2009-12-08T16:36:34Z</time>
      </trkpt>
      <trkpt lat="50.631539" lon="6.479595">
        <ele>0.000000</ele>
        <time>2009-12-08T16:36:34Z</time>
      </trkpt>
      <trkpt lat="50.631399" lon="6.479664">
        <ele>0.000000</ele>
        <time>2009-12-08T16:36:34Z</time>
      </trkpt>
      <trkpt lat="50.631045" lon="6.479713">
        <ele>0.000000</ele>
        <time>2009-12-08T16:36:34Z</time>
      </trkpt>
      <trkpt lat="50.630736" lon="6.479648">
        <ele>0.000000</ele>
        <time>2009-12-08T16:36:34Z</time>
      </trkpt>
      <trkpt lat="50.630303" lon="6.479573">
        <ele>0.000000</ele>
        <time>2009-12-08T16:36:34Z</time>
      </trkpt>
      <trkpt lat="50.629827" lon="6.479493">
        <ele>0.000000</ele>
        <time>2009-12-08T16:36:34Z</time>
      </trkpt>
      <trkpt lat="50.629511" lon="6.479326">
        <ele>0.000000</ele>
        <time>2009-12-08T16:36:34Z</time>
      </trkpt>
      <trkpt lat="50.629425" lon="6.479225">
        <ele>0.000000</ele>
        <time>2009-12-08T16:36:34Z</time>
      </trkpt>
      <trkpt lat="50.629354" lon="6.479048">
        <ele>0.000000</ele>
        <time>2009-12-08T16:36:34Z</time>
      </trkpt>
      <trkpt lat="50.629317" lon="6.478871">
        <ele>0.000000</ele>
        <time>2009-12-08T16:36:34Z</time>
      </trkpt>
      <trkpt lat="50.629242" lon="6.478667">
        <ele>0.000000</ele>
        <time>2009-12-08T16:36:34Z</time>
      </trkpt>
      <trkpt lat="50.629218" lon="6.478586">
        <ele>0.000000</ele>
        <time>2009-12-08T16:36:34Z</time>
      </trkpt>
      <trkpt lat="50.629160" lon="6.478463">
        <ele>0.000000</ele>
        <time>2009-12-08T16:36:34Z</time>
      </trkpt>
      <trkpt lat="50.629119" lon="6.478302">
        <ele>0.000000</ele>
        <time>2009-12-08T16:36:34Z</time>
      </trkpt>
      <trkpt lat="50.629082" lon="6.477867">
        <ele>0.000000</ele>
        <time>2009-12-08T16:36:34Z</time>
      </trkpt>
      <trkpt lat="50.629017" lon="6.477545">
        <ele>0.000000</ele>
        <time>2009-12-08T16:36:34Z</time>
      </trkpt>
      <trkpt lat="50.628976" lon="6.477417">
        <ele>0.000000</ele>
        <time>2009-12-08T16:36:34Z</time>
      </trkpt>
      <trkpt lat="50.628724" lon="6.476993">
        <ele>0.000000</ele>
        <time>2009-12-08T16:36:34Z</time>
      </trkpt>
      <trkpt lat="50.628670" lon="6.476859">
        <ele>0.000000</ele>
        <time>2009-12-08T16:36:34Z</time>
      </trkpt>
      <trkpt lat="50.628643" lon="6.476741">
        <ele>0.000000</ele>
        <time>2009-12-08T16:36:34Z</time>
      </trkpt>
      <trkpt lat="50.628667" lon="6.476499">
        <ele>0.000000</ele>
        <time>2009-12-08T16:36:34Z</time>
      </trkpt>
      <trkpt lat="50.628381" lon="6.475357">
        <ele>0.000000</ele>
        <time>2009-12-08T16:36:34Z</time>
      </trkpt>
      <trkpt lat="50.628350" lon="6.475169">
        <ele>0.000000</ele>
        <time>2009-12-08T16:36:34Z</time>
      </trkpt>
      <trkpt lat="50.628398" lon="6.474407">
        <ele>0.000000</ele>
        <time>2009-12-08T16:36:34Z</time>
      </trkpt>
      <trkpt lat="50.628422" lon="6.474241">
        <ele>0.000000</ele>
        <time>2009-12-08T16:36:34Z</time>
      </trkpt>
      <trkpt lat="50.628503" lon="6.474016">
        <ele>0.000000</ele>
        <time>2009-12-08T16:36:34Z</time>
      </trkpt>
      <trkpt lat="50.628633" lon="6.473447">
        <ele>0.000000</ele>
        <time>2009-12-08T16:36:34Z</time>
      </trkpt>
      <trkpt lat="50.628724" lon="6.472841">
        <ele>0.000000</ele>
        <time>2009-12-08T16:36:34Z</time>
      </trkpt>
      <trkpt lat="50.628888" lon="6.471881">
        <ele>0.000000</ele>
        <time>2009-12-08T16:36:34Z</time>
      </trkpt>
      <trkpt lat="50.628895" lon="6.471473">
        <ele>0.000000</ele>
        <time>2009-12-08T16:36:34Z</time>
      </trkpt>
      <trkpt lat="50.628919" lon="6.471038">
        <ele>0.000000</ele>
        <time>2009-12-08T16:36:34Z</time>
      </trkpt>
      <trkpt lat="50.628997" lon="6.470411">
        <ele>0.000000</ele>
        <time>2009-12-08T16:36:34Z</time>
      </trkpt>
      <trkpt lat="50.629075" lon="6.469912">
        <ele>0.000000</ele>
        <time>2009-12-08T16:36:34Z</time>
      </trkpt>
      <trkpt lat="50.629119" lon="6.469579">
        <ele>0.000000</ele>
        <time>2009-12-08T16:36:34Z</time>
      </trkpt>
      <trkpt lat="50.629204" lon="6.469048">
        <ele>0.000000</ele>
        <time>2009-12-08T16:36:34Z</time>
      </trkpt>
      <trkpt lat="50.629334" lon="6.468442">
        <ele>0.000000</ele>
        <time>2009-12-08T16:36:34Z</time>
      </trkpt>
      <trkpt lat="50.629446" lon="6.468008">
        <ele>0.000000</ele>
        <time>2009-12-08T16:36:34Z</time>
      </trkpt>
      <trkpt lat="50.629497" lon="6.467718">
        <ele>0.000000</ele>
        <time>2009-12-08T16:36:34Z</time>
      </trkpt>
      <trkpt lat="50.629677" lon="6.466860">
        <ele>0.000000</ele>
        <time>2009-12-08T16:36:34Z</time>
      </trkpt>
      <trkpt lat="50.629830" lon="6.466216">
        <ele>0.000000</ele>
        <time>2009-12-08T16:36:34Z</time>
      </trkpt>
      <trkpt lat="50.630062" lon="6.465175">
        <ele>0.000000</ele>
        <time>2009-12-08T16:36:34Z</time>
      </trkpt>
      <trkpt lat="50.630228" lon="6.463888">
        <ele>0.000000</ele>
        <time>2009-12-08T16:36:34Z</time>
      </trkpt>
      <trkpt lat="50.630300" lon="6.463512">
        <ele>0.000000</ele>
        <time>2009-12-08T16:36:34Z</time>
      </trkpt>
      <trkpt lat="50.630457" lon="6.462643">
        <ele>0.000000</ele>
        <time>2009-12-08T16:36:34Z</time>
      </trkpt>
      <trkpt lat="50.630596" lon="6.462117">
        <ele>0.000000</ele>
        <time>2009-12-08T16:36:34Z</time>
      </trkpt>
      <trkpt lat="50.630729" lon="6.461495">
        <ele>0.000000</ele>
        <time>2009-12-08T16:36:34Z</time>
      </trkpt>
      <trkpt lat="50.630844" lon="6.461109">
        <ele>0.000000</ele>
        <time>2009-12-08T16:36:34Z</time>
      </trkpt>
      <trkpt lat="50.630875" lon="6.460809">
        <ele>0.000000</ele>
        <time>2009-12-08T16:36:34Z</time>
      </trkpt>
      <trkpt lat="50.630930" lon="6.460438">
        <ele>0.000000</ele>
        <time>2009-12-08T16:36:34Z</time>
      </trkpt>
      <trkpt lat="50.630984" lon="6.459843">
        <ele>0.000000</ele>
        <time>2009-12-08T16:36:34Z</time>
      </trkpt>
      <trkpt lat="50.631015" lon="6.459446">
        <ele>0.000000</ele>
        <time>2009-12-08T16:36:34Z</time>
      </trkpt>
      <trkpt lat="50.631038" lon="6.459033">
        <ele>0.000000</ele>
        <time>2009-12-08T16:36:34Z</time>
      </trkpt>
      <trkpt lat="50.631025" lon="6.458877">
        <ele>0.000000</ele>
        <time>2009-12-08T16:36:34Z</time>
      </trkpt>
      <trkpt lat="50.630994" lon="6.458657">
        <ele>0.000000</ele>
        <time>2009-12-08T16:36:34Z</time>
      </trkpt>
      <trkpt lat="50.630831" lon="6.458185">
        <ele>0.000000</ele>
        <time>2009-12-08T16:36:34Z</time>
      </trkpt>
      <trkpt lat="50.630630" lon="6.457638">
        <ele>0.000000</ele>
        <time>2009-12-08T16:36:34Z</time>
      </trkpt>
      <trkpt lat="50.630501" lon="6.457295">
        <ele>0.000000</ele>
        <time>2009-12-08T16:36:34Z</time>
      </trkpt>
      <trkpt lat="50.630388" lon="6.456887">
        <ele>0.000000</ele>
        <time>2009-12-08T16:36:34Z</time>
      </trkpt>
      <trkpt lat="50.630392" lon="6.456742">
        <ele>0.000000</ele>
        <time>2009-12-08T16:36:34Z</time>
      </trkpt>
      <trkpt lat="50.630450" lon="6.456587">
        <ele>0.000000</ele>
        <time>2009-12-08T16:36:34Z</time>
      </trkpt>
      <trkpt lat="50.630688" lon="6.456490">
        <ele>0.000000</ele>
        <time>2009-12-08T16:36:34Z</time>
      </trkpt>
      <trkpt lat="50.630844" lon="6.456528">
        <ele>0.000000</ele>
        <time>2009-12-08T16:36:34Z</time>
      </trkpt>
      <trkpt lat="50.630654" lon="6.456200">
        <ele>0.000000</ele>
        <time>2009-12-08T16:36:34Z</time>
      </trkpt>
      <trkpt lat="50.630365" lon="6.455412">
        <ele>0.000000</ele>
        <time>2009-12-08T16:36:34Z</time>
      </trkpt>
      <trkpt lat="50.630065" lon="6.454650">
        <ele>0.000000</ele>
        <time>2009-12-08T16:36:34Z</time>
      </trkpt>
      <trkpt lat="50.629926" lon="6.454226">
        <ele>0.000000</ele>
        <time>2009-12-08T16:36:34Z</time>
      </trkpt>
      <trkpt lat="50.629892" lon="6.454140">
        <ele>0.000000</ele>
        <time>2009-12-08T16:36:34Z</time>
      </trkpt>
      <trkpt lat="50.629834" lon="6.454023">
        <ele>0.000000</ele>
        <time>2009-12-08T16:36:34Z</time>
      </trkpt>
      <trkpt lat="50.629718" lon="6.453910">
        <ele>0.000000</ele>
        <time>2009-12-08T16:36:34Z</time>
      </trkpt>
      <trkpt lat="50.629466" lon="6.453786">
        <ele>0.000000</ele>
        <time>2009-12-08T16:36:34Z</time>
      </trkpt>
      <trkpt lat="50.629225" lon="6.453636">
        <ele>0.000000</ele>
        <time>2009-12-08T16:36:34Z</time>
      </trkpt>
      <trkpt lat="50.629072" lon="6.453556">
        <ele>0.000000</ele>
        <time>2009-12-08T16:36:34Z</time>
      </trkpt>
      <trkpt lat="50.628922" lon="6.453384">
        <ele>0.000000</ele>
        <time>2009-12-08T16:36:34Z</time>
      </trkpt>
      <trkpt lat="50.628844" lon="6.453218">
        <ele>0.000000</ele>
        <time>2009-12-08T16:36:34Z</time>
      </trkpt>
      <trkpt lat="50.628568" lon="6.452547">
        <ele>0.000000</ele>
        <time>2009-12-08T16:36:34Z</time>
      </trkpt>
      <trkpt lat="50.628660" lon="6.452360">
        <ele>0.000000</ele>
        <time>2009-12-08T16:36:34Z</time>
      </trkpt>
      <trkpt lat="50.628820" lon="6.451925">
        <ele>0.000000</ele>
        <time>2009-12-08T16:36:34Z</time>
      </trkpt>
      <trkpt lat="50.629092" lon="6.451812">
        <ele>0.000000</ele>
        <time>2009-12-08T16:36:34Z</time>
      </trkpt>
      <trkpt lat="50.629558" lon="6.451501">
        <ele>0.000000</ele>
        <time>2009-12-08T16:36:34Z</time>
      </trkpt>
      <trkpt lat="50.629895" lon="6.451346">
        <ele>0.000000</ele>
        <time>2009-12-08T16:36:34Z</time>
      </trkpt>
      <trkpt lat="50.630239" lon="6.451313">
        <ele>0.000000</ele>
        <time>2009-12-08T16:36:34Z</time>
      </trkpt>
      <trkpt lat="50.630838" lon="6.451405">
        <ele>0.000000</ele>
        <time>2009-12-08T16:36:34Z</time>
      </trkpt>
      <trkpt lat="50.631351" lon="6.451753">
        <ele>0.000000</ele>
        <time>2009-12-08T16:36:34Z</time>
      </trkpt>
      <trkpt lat="50.632063" lon="6.451796">
        <ele>0.000000</ele>
        <time>2009-12-08T16:36:34Z</time>
      </trkpt>
      <trkpt lat="50.632301" lon="6.451721">
        <ele>0.000000</ele>
        <time>2009-12-08T16:36:34Z</time>
      </trkpt>
      <trkpt lat="50.632246" lon="6.451652">
        <ele>0.000000</ele>
        <time>2009-12-08T16:36:34Z</time>
      </trkpt>
      <trkpt lat="50.631777" lon="6.451238">
        <ele>0.000000</ele>
        <time>2009-12-08T16:36:34Z</time>
      </trkpt>
      <trkpt lat="50.631450" lon="6.450123">
        <ele>0.000000</ele>
        <time>2009-12-08T16:36:34Z</time>
      </trkpt>
      <trkpt lat="50.631229" lon="6.449350">
        <ele>0.000000</ele>
        <time>2009-12-08T16:36:34Z</time>
      </trkpt>
      <trkpt lat="50.631229" lon="6.447811">
        <ele>0.000000</ele>
        <time>2009-12-08T16:36:34Z</time>
      </trkpt>
      <trkpt lat="50.630582" lon="6.447870">
        <ele>0.000000</ele>
        <time>2009-12-08T16:36:34Z</time>
      </trkpt>
      <trkpt lat="50.630160" lon="6.448127">
        <ele>0.000000</ele>
        <time>2009-12-08T16:36:34Z</time>
      </trkpt>
      <trkpt lat="50.629715" lon="6.448385">
        <ele>0.000000</ele>
        <time>2009-12-08T16:36:34Z</time>
      </trkpt>
      <trkpt lat="50.630150" lon="6.447140">
        <ele>0.000000</ele>
        <time>2009-12-08T16:36:34Z</time>
      </trkpt>
      <trkpt lat="50.631032" lon="6.445708">
        <ele>0.000000</ele>
        <time>2009-12-08T16:36:34Z</time>
      </trkpt>
      <trkpt lat="50.631753" lon="6.445118">
        <ele>0.000000</ele>
        <time>2009-12-08T16:36:34Z</time>
      </trkpt>
      <trkpt lat="50.632267" lon="6.444914">
        <ele>0.000000</ele>
        <time>2009-12-08T16:36:34Z</time>
      </trkpt>
      <trkpt lat="50.632416" lon="6.444989">
        <ele>0.000000</ele>
        <time>2009-12-08T16:36:34Z</time>
      </trkpt>
      <trkpt lat="50.632746" lon="6.444898">
        <ele>0.000000</ele>
        <time>2009-12-08T16:36:34Z</time>
      </trkpt>
      <trkpt lat="50.632781" lon="6.444780">
        <ele>0.000000</ele>
        <time>2009-12-08T16:36:34Z</time>
      </trkpt>
      <trkpt lat="50.632798" lon="6.444576">
        <ele>0.000000</ele>
        <time>2009-12-08T16:36:34Z</time>
      </trkpt>
      <trkpt lat="50.632968" lon="6.444570">
        <ele>0.000000</ele>
        <time>2009-12-08T16:36:34Z</time>
      </trkpt>
      <trkpt lat="50.633257" lon="6.444415">
        <ele>0.000000</ele>
        <time>2009-12-08T16:36:34Z</time>
      </trkpt>
      <trkpt lat="50.633488" lon="6.444152">
        <ele>0.000000</ele>
        <time>2009-12-08T16:36:34Z</time>
      </trkpt>
      <trkpt lat="50.633679" lon="6.443793">
        <ele>0.000000</ele>
        <time>2009-12-08T16:36:34Z</time>
      </trkpt>
      <trkpt lat="50.634176" lon="6.443068">
        <ele>0.000000</ele>
        <time>2009-12-08T16:36:34Z</time>
      </trkpt>
      <trkpt lat="50.634533" lon="6.442682">
        <ele>0.000000</ele>
        <time>2009-12-08T16:36:34Z</time>
      </trkpt>
      <trkpt lat="50.634928" lon="6.442468">
        <ele>0.000000</ele>
        <time>2009-12-08T16:36:34Z</time>
      </trkpt>
      <trkpt lat="50.635713" lon="6.442108">
        <ele>0.000000</ele>
        <time>2009-12-08T16:36:34Z</time>
      </trkpt>
      <trkpt lat="50.636295" lon="6.441926">
        <ele>0.000000</ele>
        <time>2009-12-08T16:36:34Z</time>
      </trkpt>
      <trkpt lat="50.637010" lon="6.441765">
        <ele>0.000000</ele>
        <time>2009-12-08T16:36:34Z</time>
      </trkpt>
      <trkpt lat="50.638150" lon="6.441475">
        <ele>0.000000</ele>
        <time>2009-12-08T16:36:34Z</time>
      </trkpt>
      <trkpt lat="50.638857" lon="6.441341">
        <ele>0.000000</ele>
        <time>2009-12-08T16:36:34Z</time>
      </trkpt>
      <trkpt lat="50.638997" lon="6.441293">
        <ele>0.000000</ele>
        <time>2009-12-08T16:36:34Z</time>
      </trkpt>
      <trkpt lat="50.639170" lon="6.440853">
        <ele>0.000000</ele>
        <time>2009-12-08T16:36:34Z</time>
      </trkpt>
      <trkpt lat="50.639337" lon="6.440810">
        <ele>0.000000</ele>
        <time>2009-12-08T16:36:34Z</time>
      </trkpt>
      <trkpt lat="50.639446" lon="6.440939">
        <ele>0.000000</ele>
        <time>2009-12-08T16:36:34Z</time>
      </trkpt>
      <trkpt lat="50.639510" lon="6.441175">
        <ele>0.000000</ele>
        <time>2009-12-08T16:36:34Z</time>
      </trkpt>
      <trkpt lat="50.639626" lon="6.441218">
        <ele>0.000000</ele>
        <time>2009-12-08T16:36:34Z</time>
      </trkpt>
      <trkpt lat="50.639783" lon="6.441068">
        <ele>0.000000</ele>
        <time>2009-12-08T16:36:34Z</time>
      </trkpt>
      <trkpt lat="50.639851" lon="6.441025">
        <ele>0.000000</ele>
        <time>2009-12-08T16:36:34Z</time>
      </trkpt>
      <trkpt lat="50.639939" lon="6.441025">
        <ele>0.000000</ele>
        <time>2009-12-08T16:36:34Z</time>
      </trkpt>
      <trkpt lat="50.640191" lon="6.441126">
        <ele>0.000000</ele>
        <time>2009-12-08T16:36:34Z</time>
      </trkpt>
      <trkpt lat="50.640303" lon="6.441148">
        <ele>0.000000</ele>
        <time>2009-12-08T16:36:34Z</time>
      </trkpt>
      <trkpt lat="50.640524" lon="6.441336">
        <ele>0.000000</ele>
        <time>2009-12-08T16:36:34Z</time>
      </trkpt>
      <trkpt lat="50.640572" lon="6.441491">
        <ele>0.000000</ele>
        <time>2009-12-08T16:36:34Z</time>
      </trkpt>
      <trkpt lat="50.640633" lon="6.441647">
        <ele>0.000000</ele>
        <time>2009-12-08T16:36:34Z</time>
      </trkpt>
      <trkpt lat="50.640827" lon="6.441840">
        <ele>0.000000</ele>
        <time>2009-12-08T16:36:34Z</time>
      </trkpt>
      <trkpt lat="50.641191" lon="6.441872">
        <ele>0.000000</ele>
        <time>2009-12-08T16:36:34Z</time>
      </trkpt>
      <trkpt lat="50.641283" lon="6.441883">
        <ele>0.000000</ele>
        <time>2009-12-08T16:36:34Z</time>
      </trkpt>
      <trkpt lat="50.641364" lon="6.441910">
        <ele>0.000000</ele>
        <time>2009-12-08T16:36:34Z</time>
      </trkpt>
      <trkpt lat="50.641511" lon="6.442012">
        <ele>0.000000</ele>
        <time>2009-12-08T16:36:34Z</time>
      </trkpt>
      <trkpt lat="50.641667" lon="6.442108">
        <ele>0.000000</ele>
        <time>2009-12-08T16:36:34Z</time>
      </trkpt>
      <trkpt lat="50.641824" lon="6.442173">
        <ele>0.000000</ele>
        <time>2009-12-08T16:36:34Z</time>
      </trkpt>
      <trkpt lat="50.642072" lon="6.442114">
        <ele>0.000000</ele>
        <time>2009-12-08T16:36:34Z</time>
      </trkpt>
      <trkpt lat="50.642222" lon="6.442135">
        <ele>0.000000</ele>
        <time>2009-12-08T16:36:34Z</time>
      </trkpt>
      <trkpt lat="50.642467" lon="6.442317">
        <ele>0.000000</ele>
        <time>2009-12-08T16:36:34Z</time>
      </trkpt>
      <trkpt lat="50.642565" lon="6.442328">
        <ele>0.000000</ele>
        <time>2009-12-08T16:36:34Z</time>
      </trkpt>
      <trkpt lat="50.642807" lon="6.442199">
        <ele>0.000000</ele>
        <time>2009-12-08T16:36:34Z</time>
      </trkpt>
      <trkpt lat="50.643011" lon="6.442017">
        <ele>0.000000</ele>
        <time>2009-12-08T16:36:34Z</time>
      </trkpt>
      <trkpt lat="50.643259" lon="6.441690">
        <ele>0.000000</ele>
        <time>2009-12-08T16:36:34Z</time>
      </trkpt>
      <trkpt lat="50.643746" lon="6.441110">
        <ele>0.000000</ele>
        <time>2009-12-08T16:36:34Z</time>
      </trkpt>
      <trkpt lat="50.644345" lon="6.440644">
        <ele>0.000000</ele>
        <time>2009-12-08T16:36:34Z</time>
      </trkpt>
      <trkpt lat="50.644763" lon="6.440322">
        <ele>0.000000</ele>
        <time>2009-12-08T16:36:34Z</time>
      </trkpt>
      <trkpt lat="50.645079" lon="6.439957">
        <ele>0.000000</ele>
        <time>2009-12-08T16:36:34Z</time>
      </trkpt>
      <trkpt lat="50.645198" lon="6.439700">
        <ele>0.000000</ele>
        <time>2009-12-08T16:36:34Z</time>
      </trkpt>
      <trkpt lat="50.645249" lon="6.439453">
        <ele>0.000000</ele>
        <time>2009-12-08T16:36:34Z</time>
      </trkpt>
      <trkpt lat="50.645331" lon="6.438847">
        <ele>0.000000</ele>
        <time>2009-12-08T16:36:34Z</time>
      </trkpt>
      <trkpt lat="50.645355" lon="6.438439">
        <ele>0.000000</ele>
        <time>2009-12-08T16:36:34Z</time>
      </trkpt>
      <trkpt lat="50.645494" lon="6.437945">
        <ele>0.000000</ele>
        <time>2009-12-08T16:36:34Z</time>
      </trkpt>
      <trkpt lat="50.645542" lon="6.437715">
        <ele>0.000000</ele>
        <time>2009-12-08T16:36:34Z</time>
      </trkpt>
      <trkpt lat="50.645583" lon="6.437629">
        <ele>0.000000</ele>
        <time>2009-12-08T16:36:34Z</time>
      </trkpt>
      <trkpt lat="50.645811" lon="6.437382">
        <ele>0.000000</ele>
        <time>2009-12-08T16:36:34Z</time>
      </trkpt>
      <trkpt lat="50.646219" lon="6.437066">
        <ele>0.000000</ele>
        <time>2009-12-08T16:36:34Z</time>
      </trkpt>
      <trkpt lat="50.646556" lon="6.436974">
        <ele>0.000000</ele>
        <time>2009-12-08T16:36:34Z</time>
      </trkpt>
      <trkpt lat="50.646675" lon="6.436985">
        <ele>0.000000</ele>
        <time>2009-12-08T16:36:34Z</time>
      </trkpt>
      <trkpt lat="50.647103" lon="6.437387">
        <ele>0.000000</ele>
        <time>2009-12-08T16:36:34Z</time>
      </trkpt>
      <trkpt lat="50.647474" lon="6.437961">
        <ele>0.000000</ele>
        <time>2009-12-08T16:36:34Z</time>
      </trkpt>
      <trkpt lat="50.647569" lon="6.438122">
        <ele>0.000000</ele>
        <time>2009-12-08T16:36:34Z</time>
      </trkpt>
      <trkpt lat="50.647739" lon="6.438208">
        <ele>0.000000</ele>
        <time>2009-12-08T16:36:34Z</time>
      </trkpt>
      <trkpt lat="50.647926" lon="6.438197">
        <ele>0.000000</ele>
        <time>2009-12-08T16:36:34Z</time>
      </trkpt>
      <trkpt lat="50.648141" lon="6.438133">
        <ele>0.000000</ele>
        <time>2009-12-08T16:36:34Z</time>
      </trkpt>
      <trkpt lat="50.648243" lon="6.438063">
        <ele>0.000000</ele>
        <time>2009-12-08T16:36:34Z</time>
      </trkpt>
      <trkpt lat="50.648229" lon="6.437956">
        <ele>0.000000</ele>
        <time>2009-12-08T16:36:34Z</time>
      </trkpt>
      <trkpt lat="50.648059" lon="6.437768">
        <ele>0.000000</ele>
        <time>2009-12-08T16:36:34Z</time>
      </trkpt>
      <trkpt lat="50.647974" lon="6.437607">
        <ele>0.000000</ele>
        <time>2009-12-08T16:36:34Z</time>
      </trkpt>
      <trkpt lat="50.647875" lon="6.437151">
        <ele>0.000000</ele>
        <time>2009-12-08T16:36:34Z</time>
      </trkpt>
      <trkpt lat="50.647858" lon="6.436878">
        <ele>0.000000</ele>
        <time>2009-12-08T16:36:34Z</time>
      </trkpt>
      <trkpt lat="50.647858" lon="6.436674">
        <ele>0.000000</ele>
        <time>2009-12-08T16:36:34Z</time>
      </trkpt>
      <trkpt lat="50.647654" lon="6.435735">
        <ele>0.000000</ele>
        <time>2009-12-08T16:36:34Z</time>
      </trkpt>
      <trkpt lat="50.647573" lon="6.435515">
        <ele>0.000000</ele>
        <time>2009-12-08T16:36:34Z</time>
      </trkpt>
      <trkpt lat="50.647409" lon="6.434973">
        <ele>0.000000</ele>
        <time>2009-12-08T16:36:34Z</time>
      </trkpt>
      <trkpt lat="50.647304" lon="6.434432">
        <ele>0.000000</ele>
        <time>2009-12-08T16:36:34Z</time>
      </trkpt>
      <trkpt lat="50.647246" lon="6.433391">
        <ele>0.000000</ele>
        <time>2009-12-08T16:36:34Z</time>
      </trkpt>
      <trkpt lat="50.647314" lon="6.432860">
        <ele>0.000000</ele>
        <time>2009-12-08T16:36:34Z</time>
      </trkpt>
      <trkpt lat="50.647426" lon="6.432366">
        <ele>0.000000</ele>
        <time>2009-12-08T16:36:34Z</time>
      </trkpt>
      <trkpt lat="50.647457" lon="6.432114">
        <ele>0.000000</ele>
        <time>2009-12-08T16:36:34Z</time>
      </trkpt>
      <trkpt lat="50.647552" lon="6.431851">
        <ele>0.000000</ele>
        <time>2009-12-08T16:36:34Z</time>
      </trkpt>
      <trkpt lat="50.647627" lon="6.431433">
        <ele>0.000000</ele>
        <time>2009-12-08T16:36:34Z</time>
      </trkpt>
      <trkpt lat="50.647675" lon="6.431336">
        <ele>0.000000</ele>
        <time>2009-12-08T16:36:34Z</time>
      </trkpt>
      <trkpt lat="50.647899" lon="6.431272">
        <ele>0.000000</ele>
        <time>2009-12-08T16:36:34Z</time>
      </trkpt>
      <trkpt lat="50.648083" lon="6.431208">
        <ele>0.000000</ele>
        <time>2009-12-08T16:36:34Z</time>
      </trkpt>
      <trkpt lat="50.648348" lon="6.431186">
        <ele>0.000000</ele>
        <time>2009-12-08T16:36:34Z</time>
      </trkpt>
      <trkpt lat="50.648665" lon="6.431181">
        <ele>0.000000</ele>
        <time>2009-12-08T16:36:34Z</time>
      </trkpt>
      <trkpt lat="50.648995" lon="6.431138">
        <ele>0.000000</ele>
        <time>2009-12-08T16:36:34Z</time>
      </trkpt>
      <trkpt lat="50.649120" lon="6.431336">
        <ele>0.000000</ele>
        <time>2009-12-08T16:36:34Z</time>
      </trkpt>
      <trkpt lat="50.649341" lon="6.431578">
        <ele>0.000000</ele>
        <time>2009-12-08T16:36:34Z</time>
      </trkpt>
      <trkpt lat="50.649464" lon="6.431669">
        <ele>0.000000</ele>
        <time>2009-12-08T16:36:34Z</time>
      </trkpt>
      <trkpt lat="50.649593" lon="6.431830">
        <ele>0.000000</ele>
        <time>2009-12-08T16:36:34Z</time>
      </trkpt>
      <trkpt lat="50.649688" lon="6.431766">
        <ele>0.000000</ele>
        <time>2009-12-08T16:36:34Z</time>
      </trkpt>
      <trkpt lat="50.649750" lon="6.431487">
        <ele>0.000000</ele>
        <time>2009-12-08T16:36:34Z</time>
      </trkpt>
      <trkpt lat="50.649763" lon="6.431192">
        <ele>0.000000</ele>
        <time>2009-12-08T16:36:34Z</time>
      </trkpt>
      <trkpt lat="50.649858" lon="6.430848">
        <ele>0.000000</ele>
        <time>2009-12-08T16:36:34Z</time>
      </trkpt>
      <trkpt lat="50.650131" lon="6.430591">
        <ele>0.000000</ele>
        <time>2009-12-08T16:36:34Z</time>
      </trkpt>
      <trkpt lat="50.650314" lon="6.430280">
        <ele>0.000000</ele>
        <time>2009-12-08T16:36:34Z</time>
      </trkpt>
      <trkpt lat="50.650539" lon="6.430054">
        <ele>0.000000</ele>
        <time>2009-12-08T16:36:34Z</time>
      </trkpt>
      <trkpt lat="50.650872" lon="6.429781">
        <ele>0.000000</ele>
        <time>2009-12-08T16:36:34Z</time>
      </trkpt>
      <trkpt lat="50.650994" lon="6.429636">
        <ele>0.000000</ele>
        <time>2009-12-08T16:36:34Z</time>
      </trkpt>
      <trkpt lat="50.651229" lon="6.429738">
        <ele>0.000000</ele>
        <time>2009-12-08T16:36:34Z</time>
      </trkpt>
      <trkpt lat="50.651719" lon="6.429405">
        <ele>0.000000</ele>
        <time>2009-12-08T16:36:34Z</time>
      </trkpt>
      <trkpt lat="50.651733" lon="6.429196">
        <ele>0.000000</ele>
        <time>2009-12-08T16:36:34Z</time>
      </trkpt>
      <trkpt lat="50.651722" lon="6.428987">
        <ele>0.000000</ele>
        <time>2009-12-08T16:36:34Z</time>
      </trkpt>
      <trkpt lat="50.651688" lon="6.428681">
        <ele>0.000000</ele>
        <time>2009-12-08T16:36:34Z</time>
      </trkpt>
      <trkpt lat="50.651613" lon="6.428445">
        <ele>0.000000</ele>
        <time>2009-12-08T16:36:34Z</time>
      </trkpt>
      <trkpt lat="50.651236" lon="6.428123">
        <ele>0.000000</ele>
        <time>2009-12-08T16:36:34Z</time>
      </trkpt>
      <trkpt lat="50.650950" lon="6.427919">
        <ele>0.000000</ele>
        <time>2009-12-08T16:36:34Z</time>
      </trkpt>
      <trkpt lat="50.650637" lon="6.427780">
        <ele>0.000000</ele>
        <time>2009-12-08T16:36:34Z</time>
      </trkpt>
      <trkpt lat="50.650607" lon="6.427742">
        <ele>0.000000</ele>
        <time>2009-12-08T16:36:34Z</time>
      </trkpt>
      <trkpt lat="50.650607" lon="6.427694">
        <ele>0.000000</ele>
        <time>2009-12-08T16:36:34Z</time>
      </trkpt>
      <trkpt lat="50.650651" lon="6.427651">
        <ele>0.000000</ele>
        <time>2009-12-08T16:36:34Z</time>
      </trkpt>
      <trkpt lat="50.650726" lon="6.427597">
        <ele>0.000000</ele>
        <time>2009-12-08T16:36:34Z</time>
      </trkpt>
      <trkpt lat="50.651103" lon="6.427571">
        <ele>0.000000</ele>
        <time>2009-12-08T16:36:34Z</time>
      </trkpt>
      <trkpt lat="50.651352" lon="6.427549">
        <ele>0.000000</ele>
        <time>2009-12-08T16:36:34Z</time>
      </trkpt>
      <trkpt lat="50.651491" lon="6.427436">
        <ele>0.000000</ele>
        <time>2009-12-08T16:36:34Z</time>
      </trkpt>
      <trkpt lat="50.651879" lon="6.427394">
        <ele>0.000000</ele>
        <time>2009-12-08T16:36:34Z</time>
      </trkpt>
      <trkpt lat="50.652147" lon="6.427420">
        <ele>0.000000</ele>
        <time>2009-12-08T16:36:34Z</time>
      </trkpt>
      <trkpt lat="50.652158" lon="6.427383">
        <ele>0.000000</ele>
        <time>2009-12-08T16:36:34Z</time>
      </trkpt>
      <trkpt lat="50.651879" lon="6.427109">
        <ele>0.000000</ele>
        <time>2009-12-08T16:36:34Z</time>
      </trkpt>
      <trkpt lat="50.651695" lon="6.426997">
        <ele>0.000000</ele>
        <time>2009-12-08T16:36:34Z</time>
      </trkpt>
      <trkpt lat="50.651726" lon="6.426964">
        <ele>0.000000</ele>
        <time>2009-12-08T16:36:34Z</time>
      </trkpt>
      <trkpt lat="50.651954" lon="6.426927">
        <ele>0.000000</ele>
        <time>2009-12-08T16:36:34Z</time>
      </trkpt>
      <trkpt lat="50.652236" lon="6.426959">
        <ele>0.000000</ele>
        <time>2009-12-08T16:36:34Z</time>
      </trkpt>
      <trkpt lat="50.652668" lon="6.427120">
        <ele>0.000000</ele>
        <time>2009-12-08T16:36:34Z</time>
      </trkpt>
      <trkpt lat="50.652743" lon="6.427367">
        <ele>0.000000</ele>
        <time>2009-12-08T16:36:34Z</time>
      </trkpt>
      <trkpt lat="50.652828" lon="6.427538">
        <ele>0.000000</ele>
        <time>2009-12-08T16:36:34Z</time>
      </trkpt>
      <trkpt lat="50.653008" lon="6.428021">
        <ele>0.000000</ele>
        <time>2009-12-08T16:36:34Z</time>
      </trkpt>
      <trkpt lat="50.653069" lon="6.428177">
        <ele>0.000000</ele>
        <time>2009-12-08T16:36:34Z</time>
      </trkpt>
      <trkpt lat="50.653239" lon="6.428499">
        <ele>0.000000</ele>
        <time>2009-12-08T16:36:34Z</time>
      </trkpt>
      <trkpt lat="50.653385" lon="6.428944">
        <ele>0.000000</ele>
        <time>2009-12-08T16:36:34Z</time>
      </trkpt>
      <trkpt lat="50.653430" lon="6.428745">
        <ele>0.000000</ele>
        <time>2009-12-08T16:36:34Z</time>
      </trkpt>
      <trkpt lat="50.653396" lon="6.427286">
        <ele>0.000000</ele>
        <time>2009-12-08T16:36:34Z</time>
      </trkpt>
      <trkpt lat="50.653508" lon="6.427093">
        <ele>0.000000</ele>
        <time>2009-12-08T16:36:34Z</time>
      </trkpt>
      <trkpt lat="50.653457" lon="6.426921">
        <ele>0.000000</ele>
        <time>2009-12-08T16:36:34Z</time>
      </trkpt>
      <trkpt lat="50.653338" lon="6.426664">
        <ele>0.000000</ele>
        <time>2009-12-08T16:36:34Z</time>
      </trkpt>
      <trkpt lat="50.653107" lon="6.426251">
        <ele>0.000000</ele>
        <time>2009-12-08T16:36:34Z</time>
      </trkpt>
      <trkpt lat="50.653056" lon="6.426176">
        <ele>0.000000</ele>
        <time>2009-12-08T16:36:34Z</time>
      </trkpt>
      <trkpt lat="50.652930" lon="6.426058">
        <ele>0.000000</ele>
        <time>2009-12-08T16:36:34Z</time>
      </trkpt>
      <trkpt lat="50.652811" lon="6.425881">
        <ele>0.000000</ele>
        <time>2009-12-08T16:36:34Z</time>
      </trkpt>
      <trkpt lat="50.652739" lon="6.425645">
        <ele>0.000000</ele>
        <time>2009-12-08T16:36:34Z</time>
      </trkpt>
      <trkpt lat="50.652610" lon="6.425441">
        <ele>0.000000</ele>
        <time>2009-12-08T16:36:34Z</time>
      </trkpt>
      <trkpt lat="50.652358" lon="6.424829">
        <ele>0.000000</ele>
        <time>2009-12-08T16:36:34Z</time>
      </trkpt>
      <trkpt lat="50.652603" lon="6.424309">
        <ele>0.000000</ele>
        <time>2009-12-08T16:36:34Z</time>
      </trkpt>
      <trkpt lat="50.652828" lon="6.423842">
        <ele>0.000000</ele>
        <time>2009-12-08T16:36:34Z</time>
      </trkpt>
      <trkpt lat="50.653001" lon="6.423322">
        <ele>0.000000</ele>
        <time>2009-12-08T16:36:34Z</time>
      </trkpt>
      <trkpt lat="50.653045" lon="6.423000">
        <ele>0.000000</ele>
        <time>2009-12-08T16:36:34Z</time>
      </trkpt>
      <trkpt lat="50.652998" lon="6.422807">
        <ele>0.000000</ele>
        <time>2009-12-08T16:36:34Z</time>
      </trkpt>
      <trkpt lat="50.653001" lon="6.422737">
        <ele>0.000000</ele>
        <time>2009-12-08T16:36:34Z</time>
      </trkpt>
      <trkpt lat="50.652991" lon="6.422555">
        <ele>0.000000</ele>
        <time>2009-12-08T16:36:34Z</time>
      </trkpt>
      <trkpt lat="50.652920" lon="6.422474">
        <ele>0.000000</ele>
        <time>2009-12-08T16:36:34Z</time>
      </trkpt>
      <trkpt lat="50.652879" lon="6.422378">
        <ele>0.000000</ele>
        <time>2009-12-08T16:36:34Z</time>
      </trkpt>
      <trkpt lat="50.652858" lon="6.422179">
        <ele>0.000000</ele>
        <time>2009-12-08T16:36:34Z</time>
      </trkpt>
      <trkpt lat="50.652998" lon="6.421906">
        <ele>0.000000</ele>
        <time>2009-12-08T16:36:34Z</time>
      </trkpt>
      <trkpt lat="50.653052" lon="6.420967">
        <ele>0.000000</ele>
        <time>2009-12-08T16:36:34Z</time>
      </trkpt>
      <trkpt lat="50.653117" lon="6.420404">
        <ele>0.000000</ele>
        <time>2009-12-08T16:36:34Z</time>
      </trkpt>
      <trkpt lat="50.653113" lon="6.420082">
        <ele>0.000000</ele>
        <time>2009-12-08T16:36:34Z</time>
      </trkpt>
      <trkpt lat="50.653164" lon="6.419551">
        <ele>0.000000</ele>
        <time>2009-12-08T16:36:34Z</time>
      </trkpt>
      <trkpt lat="50.653198" lon="6.419401">
        <ele>0.000000</ele>
        <time>2009-12-08T16:36:34Z</time>
      </trkpt>
      <trkpt lat="50.653164" lon="6.419288">
        <ele>0.000000</ele>
        <time>2009-12-08T16:36:34Z</time>
      </trkpt>
      <trkpt lat="50.653175" lon="6.419154">
        <ele>0.000000</ele>
        <time>2009-12-08T16:36:34Z</time>
      </trkpt>
      <trkpt lat="50.653158" lon="6.419079">
        <ele>0.000000</ele>
        <time>2009-12-08T16:36:34Z</time>
      </trkpt>
      <trkpt lat="50.653236" lon="6.418929">
        <ele>0.000000</ele>
        <time>2009-12-08T16:36:34Z</time>
      </trkpt>
      <trkpt lat="50.653250" lon="6.418671">
        <ele>0.000000</ele>
        <time>2009-12-08T16:36:34Z</time>
      </trkpt>
      <trkpt lat="50.653215" lon="6.418532">
        <ele>0.000000</ele>
        <time>2009-12-08T16:36:34Z</time>
      </trkpt>
      <trkpt lat="50.653250" lon="6.418333">
        <ele>0.000000</ele>
        <time>2009-12-08T16:36:34Z</time>
      </trkpt>
      <trkpt lat="50.653283" lon="6.417968">
        <ele>0.000000</ele>
        <time>2009-12-08T16:36:34Z</time>
      </trkpt>
      <trkpt lat="50.653300" lon="6.417722">
        <ele>0.000000</ele>
        <time>2009-12-08T16:36:34Z</time>
      </trkpt>
      <trkpt lat="50.653277" lon="6.417523">
        <ele>0.000000</ele>
        <time>2009-12-08T16:36:34Z</time>
      </trkpt>
      <trkpt lat="50.653212" lon="6.417351">
        <ele>0.000000</ele>
        <time>2009-12-08T16:36:34Z</time>
      </trkpt>
      <trkpt lat="50.653195" lon="6.417421">
        <ele>0.000000</ele>
        <time>2009-12-08T16:36:34Z</time>
      </trkpt>
      <trkpt lat="50.653113" lon="6.417459">
        <ele>0.000000</ele>
        <time>2009-12-08T16:36:34Z</time>
      </trkpt>
      <trkpt lat="50.652851" lon="6.417915">
        <ele>0.000000</ele>
        <time>2009-12-08T16:36:34Z</time>
      </trkpt>
      <trkpt lat="50.652835" lon="6.418059">
        <ele>0.000000</ele>
        <time>2009-12-08T16:36:34Z</time>
      </trkpt>
      <trkpt lat="50.652651" lon="6.418226">
        <ele>0.000000</ele>
        <time>2009-12-08T16:36:34Z</time>
      </trkpt>
      <trkpt lat="50.652617" lon="6.418177">
        <ele>0.000000</ele>
        <time>2009-12-08T16:36:34Z</time>
      </trkpt>
      <trkpt lat="50.652879" lon="6.417797">
        <ele>0.000000</ele>
        <time>2009-12-08T16:36:34Z</time>
      </trkpt>
      <trkpt lat="50.652882" lon="6.417700">
        <ele>0.000000</ele>
        <time>2009-12-08T16:36:34Z</time>
      </trkpt>
      <trkpt lat="50.652596" lon="6.417770">
        <ele>0.000000</ele>
        <time>2009-12-08T16:36:34Z</time>
      </trkpt>
      <trkpt lat="50.652491" lon="6.417732">
        <ele>0.000000</ele>
        <time>2009-12-08T16:36:34Z</time>
      </trkpt>
      <trkpt lat="50.652416" lon="6.417764">
        <ele>0.000000</ele>
        <time>2009-12-08T16:36:34Z</time>
      </trkpt>
      <trkpt lat="50.652443" lon="6.417663">
        <ele>0.000000</ele>
        <time>2009-12-08T16:36:34Z</time>
      </trkpt>
      <trkpt lat="50.652437" lon="6.417528">
        <ele>0.000000</ele>
        <time>2009-12-08T16:36:34Z</time>
      </trkpt>
      <trkpt lat="50.652379" lon="6.417384">
        <ele>0.000000</ele>
        <time>2009-12-08T16:36:34Z</time>
      </trkpt>
      <trkpt lat="50.652287" lon="6.417384">
        <ele>0.000000</ele>
        <time>2009-12-08T16:36:34Z</time>
      </trkpt>
      <trkpt lat="50.652205" lon="6.417432">
        <ele>0.000000</ele>
        <time>2009-12-08T16:36:34Z</time>
      </trkpt>
      <trkpt lat="50.652175" lon="6.417496">
        <ele>0.000000</ele>
        <time>2009-12-08T16:36:34Z</time>
      </trkpt>
      <trkpt lat="50.652226" lon="6.417668">
        <ele>0.000000</ele>
        <time>2009-12-08T16:36:34Z</time>
      </trkpt>
      <trkpt lat="50.652066" lon="6.417931">
        <ele>0.000000</ele>
        <time>2009-12-08T16:36:34Z</time>
      </trkpt>
      <trkpt lat="50.652147" lon="6.418065">
        <ele>0.000000</ele>
        <time>2009-12-08T16:36:34Z</time>
      </trkpt>
      <trkpt lat="50.651974" lon="6.418446">
        <ele>0.000000</ele>
        <time>2009-12-08T16:36:34Z</time>
      </trkpt>
      <trkpt lat="50.651821" lon="6.418226">
        <ele>0.000000</ele>
        <time>2009-12-08T16:36:34Z</time>
      </trkpt>
      <trkpt lat="50.651760" lon="6.417920">
        <ele>0.000000</ele>
        <time>2009-12-08T16:36:34Z</time>
      </trkpt>
      <trkpt lat="50.651522" lon="6.417732">
        <ele>0.000000</ele>
        <time>2009-12-08T16:36:34Z</time>
      </trkpt>
      <trkpt lat="50.651389" lon="6.417743">
        <ele>0.000000</ele>
        <time>2009-12-08T16:36:34Z</time>
      </trkpt>
      <trkpt lat="50.651287" lon="6.417700">
        <ele>0.000000</ele>
        <time>2009-12-08T16:36:34Z</time>
      </trkpt>
      <trkpt lat="50.651154" lon="6.417738">
        <ele>0.000000</ele>
        <time>2009-12-08T16:36:34Z</time>
      </trkpt>
      <trkpt lat="50.650756" lon="6.417802">
        <ele>0.000000</ele>
        <time>2009-12-08T16:36:34Z</time>
      </trkpt>
      <trkpt lat="50.650644" lon="6.417818">
        <ele>0.000000</ele>
        <time>2009-12-08T16:36:34Z</time>
      </trkpt>
      <trkpt lat="50.650188" lon="6.417781">
        <ele>0.000000</ele>
        <time>2009-12-08T16:36:34Z</time>
      </trkpt>
      <trkpt lat="50.649940" lon="6.417512">
        <ele>0.000000</ele>
        <time>2009-12-08T16:36:34Z</time>
      </trkpt>
      <trkpt lat="50.649549" lon="6.416874">
        <ele>0.000000</ele>
        <time>2009-12-08T16:36:34Z</time>
      </trkpt>
      <trkpt lat="50.649011" lon="6.416059">
        <ele>0.000000</ele>
        <time>2009-12-08T16:36:34Z</time>
      </trkpt>
      <trkpt lat="50.648511" lon="6.415447">
        <ele>0.000000</ele>
        <time>2009-12-08T16:36:34Z</time>
      </trkpt>
      <trkpt lat="50.648178" lon="6.415190">
        <ele>0.000000</ele>
        <time>2009-12-08T16:36:34Z</time>
      </trkpt>
      <trkpt lat="50.648001" lon="6.414921">
        <ele>0.000000</ele>
        <time>2009-12-08T16:36:34Z</time>
      </trkpt>
      <trkpt lat="50.647831" lon="6.414803">
        <ele>0.000000</ele>
        <time>2009-12-08T16:36:34Z</time>
      </trkpt>
      <trkpt lat="50.647426" lon="6.414363">
        <ele>0.000000</ele>
        <time>2009-12-08T16:36:34Z</time>
      </trkpt>
      <trkpt lat="50.647039" lon="6.413929">
        <ele>0.000000</ele>
        <time>2009-12-08T16:36:34Z</time>
      </trkpt>
      <trkpt lat="50.646484" lon="6.413194">
        <ele>0.000000</ele>
        <time>2009-12-08T16:36:34Z</time>
      </trkpt>
      <trkpt lat="50.646532" lon="6.412920">
        <ele>0.000000</ele>
        <time>2009-12-08T16:36:34Z</time>
      </trkpt>
      <trkpt lat="50.646760" lon="6.412781">
        <ele>0.000000</ele>
        <time>2009-12-08T16:36:34Z</time>
      </trkpt>
      <trkpt lat="50.646923" lon="6.412421">
        <ele>0.000000</ele>
        <time>2009-12-08T16:36:34Z</time>
      </trkpt>
      <trkpt lat="50.646923" lon="6.411987">
        <ele>0.000000</ele>
        <time>2009-12-08T16:36:34Z</time>
      </trkpt>
      <trkpt lat="50.646831" lon="6.411735">
        <ele>0.000000</ele>
        <time>2009-12-08T16:36:34Z</time>
      </trkpt>
      <trkpt lat="50.646858" lon="6.411424">
        <ele>0.000000</ele>
        <time>2009-12-08T16:36:34Z</time>
      </trkpt>
      <trkpt lat="50.647045" lon="6.410850">
        <ele>0.000000</ele>
        <time>2009-12-08T16:36:34Z</time>
      </trkpt>
      <trkpt lat="50.647028" lon="6.410560">
        <ele>0.000000</ele>
        <time>2009-12-08T16:36:34Z</time>
      </trkpt>
      <trkpt lat="50.647137" lon="6.410077">
        <ele>0.000000</ele>
        <time>2009-12-08T16:36:34Z</time>
      </trkpt>
      <trkpt lat="50.647372" lon="6.409455">
        <ele>0.000000</ele>
        <time>2009-12-08T16:36:34Z</time>
      </trkpt>
      <trkpt lat="50.647447" lon="6.409283">
        <ele>0.000000</ele>
        <time>2009-12-08T16:36:34Z</time>
      </trkpt>
      <trkpt lat="50.647559" lon="6.408779">
        <ele>0.000000</ele>
        <time>2009-12-08T16:36:34Z</time>
      </trkpt>
      <trkpt lat="50.647872" lon="6.407776">
        <ele>0.000000</ele>
        <time>2009-12-08T16:36:34Z</time>
      </trkpt>
      <trkpt lat="50.648321" lon="6.406837">
        <ele>0.000000</ele>
        <time>2009-12-08T16:36:34Z</time>
      </trkpt>
      <trkpt lat="50.648420" lon="6.406537">
        <ele>0.000000</ele>
        <time>2009-12-08T16:36:34Z</time>
      </trkpt>
      <trkpt lat="50.648831" lon="6.405872">
        <ele>0.000000</ele>
        <time>2009-12-08T16:36:34Z</time>
      </trkpt>
      <trkpt lat="50.649559" lon="6.405013">
        <ele>0.000000</ele>
        <time>2009-12-08T16:36:34Z</time>
      </trkpt>
      <trkpt lat="50.650341" lon="6.404729">
        <ele>0.000000</ele>
        <time>2009-12-08T16:36:34Z</time>
      </trkpt>
      <trkpt lat="50.651008" lon="6.404466">
        <ele>0.000000</ele>
        <time>2009-12-08T16:36:34Z</time>
      </trkpt>
      <trkpt lat="50.651739" lon="6.404155">
        <ele>0.000000</ele>
        <time>2009-12-08T16:36:34Z</time>
      </trkpt>
      <trkpt lat="50.652124" lon="6.403731">
        <ele>0.000000</ele>
        <time>2009-12-08T16:36:34Z</time>
      </trkpt>
      <trkpt lat="50.652379" lon="6.402572">
        <ele>0.000000</ele>
        <time>2009-12-08T16:36:34Z</time>
      </trkpt>
      <trkpt lat="50.652226" lon="6.401789">
        <ele>0.000000</ele>
        <time>2009-12-08T16:36:34Z</time>
      </trkpt>
      <trkpt lat="50.652232" lon="6.401510">
        <ele>0.000000</ele>
        <time>2009-12-08T16:36:34Z</time>
      </trkpt>
      <trkpt lat="50.652699" lon="6.401548">
        <ele>0.000000</ele>
        <time>2009-12-08T16:36:34Z</time>
      </trkpt>
      <trkpt lat="50.653100" lon="6.401269">
        <ele>0.000000</ele>
        <time>2009-12-08T16:36:34Z</time>
      </trkpt>
      <trkpt lat="50.653396" lon="6.401129">
        <ele>0.000000</ele>
        <time>2009-12-08T16:36:34Z</time>
      </trkpt>
      <trkpt lat="50.653780" lon="6.401129">
        <ele>0.000000</ele>
        <time>2009-12-08T16:36:34Z</time>
      </trkpt>
      <trkpt lat="50.654059" lon="6.401274">
        <ele>0.000000</ele>
        <time>2009-12-08T16:36:34Z</time>
      </trkpt>
      <trkpt lat="50.654351" lon="6.401414">
        <ele>0.000000</ele>
        <time>2009-12-08T16:36:34Z</time>
      </trkpt>
      <trkpt lat="50.654834" lon="6.401537">
        <ele>0.000000</ele>
        <time>2009-12-08T16:36:34Z</time>
      </trkpt>
      <trkpt lat="50.655212" lon="6.401419">
        <ele>0.000000</ele>
        <time>2009-12-08T16:36:34Z</time>
      </trkpt>
      <trkpt lat="50.655559" lon="6.401451">
        <ele>0.000000</ele>
        <time>2009-12-08T16:36:34Z</time>
      </trkpt>
      <trkpt lat="50.655589" lon="6.401301">
        <ele>0.000000</ele>
        <time>2009-12-08T16:36:34Z</time>
      </trkpt>
      <trkpt lat="50.655617" lon="6.400936">
        <ele>0.000000</ele>
        <time>2009-12-08T16:36:34Z</time>
      </trkpt>
      <trkpt lat="50.655620" lon="6.400722">
        <ele>0.000000</ele>
        <time>2009-12-08T16:36:34Z</time>
      </trkpt>
      <trkpt lat="50.655579" lon="6.400507">
        <ele>0.000000</ele>
        <time>2009-12-08T16:36:34Z</time>
      </trkpt>
      <trkpt lat="50.655518" lon="6.400239">
        <ele>0.000000</ele>
        <time>2009-12-08T16:36:34Z</time>
      </trkpt>
      <trkpt lat="50.655345" lon="6.400089">
        <ele>0.000000</ele>
        <time>2009-12-08T16:36:34Z</time>
      </trkpt>
      <trkpt lat="50.655134" lon="6.399858">
        <ele>0.000000</ele>
        <time>2009-12-08T16:36:34Z</time>
      </trkpt>
      <trkpt lat="50.655426" lon="6.399225">
        <ele>0.000000</ele>
        <time>2009-12-08T16:36:34Z</time>
      </trkpt>
      <trkpt lat="50.655691" lon="6.398640">
        <ele>0.000000</ele>
        <time>2009-12-08T16:36:34Z</time>
      </trkpt>
      <trkpt lat="50.655940" lon="6.398157">
        <ele>0.000000</ele>
        <time>2009-12-08T16:36:34Z</time>
      </trkpt>
      <trkpt lat="50.656358" lon="6.397535">
        <ele>0.000000</ele>
        <time>2009-12-08T16:36:34Z</time>
      </trkpt>
      <trkpt lat="50.656780" lon="6.396913">
        <ele>0.000000</ele>
        <time>2009-12-08T16:36:34Z</time>
      </trkpt>
      <trkpt lat="50.657763" lon="6.395448">
        <ele>0.000000</ele>
        <time>2009-12-08T16:36:34Z</time>
      </trkpt>
      <trkpt lat="50.658276" lon="6.394756">
        <ele>0.000000</ele>
        <time>2009-12-08T16:36:34Z</time>
      </trkpt>
      <trkpt lat="50.659510" lon="6.393737">
        <ele>0.000000</ele>
        <time>2009-12-08T16:36:34Z</time>
      </trkpt>
      <trkpt lat="50.660327" lon="6.393072">
        <ele>0.000000</ele>
        <time>2009-12-08T16:36:34Z</time>
      </trkpt>
      <trkpt lat="50.660228" lon="6.392954">
        <ele>0.000000</ele>
        <time>2009-12-08T16:36:34Z</time>
      </trkpt>
      <trkpt lat="50.660517" lon="6.391549">
        <ele>0.000000</ele>
        <time>2009-12-08T16:36:34Z</time>
      </trkpt>
      <trkpt lat="50.661394" lon="6.390626">
        <ele>0.000000</ele>
        <time>2009-12-08T16:36:34Z</time>
      </trkpt>
      <trkpt lat="50.661874" lon="6.388577">
        <ele>0.000000</ele>
        <time>2009-12-08T16:36:34Z</time>
      </trkpt>
      <trkpt lat="50.661796" lon="6.387997">
        <ele>0.000000</ele>
        <time>2009-12-08T16:36:34Z</time>
      </trkpt>
      <trkpt lat="50.661745" lon="6.387788">
        <ele>0.000000</ele>
        <time>2009-12-08T16:36:34Z</time>
      </trkpt>
      <trkpt lat="50.661629" lon="6.387407">
        <ele>0.000000</ele>
        <time>2009-12-08T16:36:34Z</time>
      </trkpt>
      <trkpt lat="50.661751" lon="6.386501">
        <ele>0.000000</ele>
        <time>2009-12-08T16:36:34Z</time>
      </trkpt>
      <trkpt lat="50.661782" lon="6.386109">
        <ele>0.000000</ele>
        <time>2009-12-08T16:36:34Z</time>
      </trkpt>
      <trkpt lat="50.661738" lon="6.385975">
        <ele>0.000000</ele>
        <time>2009-12-08T16:36:34Z</time>
      </trkpt>
      <trkpt lat="50.661619" lon="6.385911">
        <ele>0.000000</ele>
        <time>2009-12-08T16:36:34Z</time>
      </trkpt>
      <trkpt lat="50.661483" lon="6.385943">
        <ele>0.000000</ele>
        <time>2009-12-08T16:36:34Z</time>
      </trkpt>
      <trkpt lat="50.661228" lon="6.385937">
        <ele>0.000000</ele>
        <time>2009-12-08T16:36:34Z</time>
      </trkpt>
      <trkpt lat="50.661058" lon="6.386114">
        <ele>0.000000</ele>
        <time>2009-12-08T16:36:34Z</time>
      </trkpt>
      <trkpt lat="50.660990" lon="6.386238">
        <ele>0.000000</ele>
        <time>2009-12-08T16:36:34Z</time>
      </trkpt>
      <trkpt lat="50.660908" lon="6.386544">
        <ele>0.000000</ele>
        <time>2009-12-08T16:36:34Z</time>
      </trkpt>
      <trkpt lat="50.660857" lon="6.386796">
        <ele>0.000000</ele>
        <time>2009-12-08T16:36:34Z</time>
      </trkpt>
      <trkpt lat="50.660520" lon="6.387579">
        <ele>0.000000</ele>
        <time>2009-12-08T16:36:34Z</time>
      </trkpt>
      <trkpt lat="50.660214" lon="6.387981">
        <ele>0.000000</ele>
        <time>2009-12-08T16:36:34Z</time>
      </trkpt>
      <trkpt lat="50.660153" lon="6.387949">
        <ele>0.000000</ele>
        <time>2009-12-08T16:36:34Z</time>
      </trkpt>
      <trkpt lat="50.660065" lon="6.387847">
        <ele>0.000000</ele>
        <time>2009-12-08T16:36:34Z</time>
      </trkpt>
      <trkpt lat="50.660055" lon="6.387665">
        <ele>0.000000</ele>
        <time>2009-12-08T16:36:34Z</time>
      </trkpt>
      <trkpt lat="50.660075" lon="6.387316">
        <ele>0.000000</ele>
        <time>2009-12-08T16:36:34Z</time>
      </trkpt>
      <trkpt lat="50.660089" lon="6.386828">
        <ele>0.000000</ele>
        <time>2009-12-08T16:36:34Z</time>
      </trkpt>
      <trkpt lat="50.660004" lon="6.386474">
        <ele>0.000000</ele>
        <time>2009-12-08T16:36:34Z</time>
      </trkpt>
      <trkpt lat="50.659929" lon="6.386281">
        <ele>0.000000</ele>
        <time>2009-12-08T16:36:34Z</time>
      </trkpt>
      <trkpt lat="50.659830" lon="6.386211">
        <ele>0.000000</ele>
        <time>2009-12-08T16:36:34Z</time>
      </trkpt>
      <trkpt lat="50.659664" lon="6.386227">
        <ele>0.000000</ele>
        <time>2009-12-08T16:36:34Z</time>
      </trkpt>
      <trkpt lat="50.659453" lon="6.386286">
        <ele>0.000000</ele>
        <time>2009-12-08T16:36:34Z</time>
      </trkpt>
      <trkpt lat="50.659392" lon="6.386195">
        <ele>0.000000</ele>
        <time>2009-12-08T16:36:34Z</time>
      </trkpt>
      <trkpt lat="50.659381" lon="6.386136">
        <ele>0.000000</ele>
        <time>2009-12-08T16:36:34Z</time>
      </trkpt>
      <trkpt lat="50.659595" lon="6.385272">
        <ele>0.000000</ele>
        <time>2009-12-08T16:36:34Z</time>
      </trkpt>
      <trkpt lat="50.659711" lon="6.384913">
        <ele>0.000000</ele>
        <time>2009-12-08T16:36:34Z</time>
      </trkpt>
      <trkpt lat="50.659816" lon="6.384736">
        <ele>0.000000</ele>
        <time>2009-12-08T16:36:34Z</time>
      </trkpt>
      <trkpt lat="50.659925" lon="6.384242">
        <ele>0.000000</ele>
        <time>2009-12-08T16:36:34Z</time>
      </trkpt>
      <trkpt lat="50.659959" lon="6.384038">
        <ele>0.000000</ele>
        <time>2009-12-08T16:36:34Z</time>
      </trkpt>
      <trkpt lat="50.659997" lon="6.383706">
        <ele>0.000000</ele>
        <time>2009-12-08T16:36:34Z</time>
      </trkpt>
      <trkpt lat="50.660180" lon="6.383046">
        <ele>0.000000</ele>
        <time>2009-12-08T16:36:34Z</time>
      </trkpt>
      <trkpt lat="50.660371" lon="6.382686">
        <ele>0.000000</ele>
        <time>2009-12-08T16:36:34Z</time>
      </trkpt>
      <trkpt lat="50.660626" lon="6.382407">
        <ele>0.000000</ele>
        <time>2009-12-08T16:36:34Z</time>
      </trkpt>
      <trkpt lat="50.660912" lon="6.382177">
        <ele>0.000000</ele>
        <time>2009-12-08T16:36:34Z</time>
      </trkpt>
      <trkpt lat="50.661221" lon="6.382016">
        <ele>0.000000</ele>
        <time>2009-12-08T16:36:34Z</time>
      </trkpt>
      <trkpt lat="50.661612" lon="6.381919">
        <ele>0.000000</ele>
        <time>2009-12-08T16:36:34Z</time>
      </trkpt>
      <trkpt lat="50.662438" lon="6.381834">
        <ele>0.000000</ele>
        <time>2009-12-08T16:36:34Z</time>
      </trkpt>
      <trkpt lat="50.663428" lon="6.381769">
        <ele>0.000000</ele>
        <time>2009-12-08T16:36:34Z</time>
      </trkpt>
      <trkpt lat="50.663492" lon="6.381748">
        <ele>0.000000</ele>
        <time>2009-12-08T16:36:34Z</time>
      </trkpt>
      <trkpt lat="50.663622" lon="6.381608">
        <ele>0.000000</ele>
        <time>2009-12-08T16:36:34Z</time>
      </trkpt>
      <trkpt lat="50.663639" lon="6.381437">
        <ele>0.000000</ele>
        <time>2009-12-08T16:36:34Z</time>
      </trkpt>
      <trkpt lat="50.663550" lon="6.381104">
        <ele>0.000000</ele>
        <time>2009-12-08T16:36:34Z</time>
      </trkpt>
      <trkpt lat="50.663431" lon="6.380675">
        <ele>0.000000</ele>
        <time>2009-12-08T16:36:34Z</time>
      </trkpt>
      <trkpt lat="50.663326" lon="6.380020">
        <ele>0.000000</ele>
        <time>2009-12-08T16:36:34Z</time>
      </trkpt>
      <trkpt lat="50.663295" lon="6.379634">
        <ele>0.000000</ele>
        <time>2009-12-08T16:36:34Z</time>
      </trkpt>
      <trkpt lat="50.663339" lon="6.379409">
        <ele>0.000000</ele>
        <time>2009-12-08T16:36:34Z</time>
      </trkpt>
      <trkpt lat="50.663421" lon="6.379398">
        <ele>0.000000</ele>
        <time>2009-12-08T16:36:34Z</time>
      </trkpt>
      <trkpt lat="50.663499" lon="6.379521">
        <ele>0.000000</ele>
        <time>2009-12-08T16:36:34Z</time>
      </trkpt>
      <trkpt lat="50.663659" lon="6.379806">
        <ele>0.000000</ele>
        <time>2009-12-08T16:36:34Z</time>
      </trkpt>
      <trkpt lat="50.663863" lon="6.380160">
        <ele>0.000000</ele>
        <time>2009-12-08T16:36:34Z</time>
      </trkpt>
      <trkpt lat="50.663958" lon="6.380278">
        <ele>0.000000</ele>
        <time>2009-12-08T16:36:34Z</time>
      </trkpt>
      <trkpt lat="50.664142" lon="6.380433">
        <ele>0.000000</ele>
        <time>2009-12-08T16:36:34Z</time>
      </trkpt>
      <trkpt lat="50.664298" lon="6.380589">
        <ele>0.000000</ele>
        <time>2009-12-08T16:36:34Z</time>
      </trkpt>
      <trkpt lat="50.664584" lon="6.380922">
        <ele>0.000000</ele>
        <time>2009-12-08T16:36:34Z</time>
      </trkpt>
      <trkpt lat="50.664866" lon="6.381292">
        <ele>0.000000</ele>
        <time>2009-12-08T16:36:34Z</time>
      </trkpt>
      <trkpt lat="50.664958" lon="6.381404">
        <ele>0.000000</ele>
        <time>2009-12-08T16:36:34Z</time>
      </trkpt>
      <trkpt lat="50.665108" lon="6.381474">
        <ele>0.000000</ele>
        <time>2009-12-08T16:36:34Z</time>
      </trkpt>
      <trkpt lat="50.665261" lon="6.381458">
        <ele>0.000000</ele>
        <time>2009-12-08T16:36:34Z</time>
      </trkpt>
      <trkpt lat="50.665951" lon="6.381324">
        <ele>0.000000</ele>
        <time>2009-12-08T16:36:34Z</time>
      </trkpt>
      <trkpt lat="50.666050" lon="6.381367">
        <ele>0.000000</ele>
        <time>2009-12-08T16:36:34Z</time>
      </trkpt>
      <trkpt lat="50.666488" lon="6.381308">
        <ele>0.000000</ele>
        <time>2009-12-08T16:36:34Z</time>
      </trkpt>
      <trkpt lat="50.667042" lon="6.381249">
        <ele>0.000000</ele>
        <time>2009-12-08T16:36:34Z</time>
      </trkpt>
      <trkpt lat="50.667161" lon="6.381195">
        <ele>0.000000</ele>
        <time>2009-12-08T16:36:34Z</time>
      </trkpt>
      <trkpt lat="50.667471" lon="6.381024">
        <ele>0.000000</ele>
        <time>2009-12-08T16:36:34Z</time>
      </trkpt>
      <trkpt lat="50.667569" lon="6.381007">
        <ele>0.000000</ele>
        <time>2009-12-08T16:36:34Z</time>
      </trkpt>
      <trkpt lat="50.667681" lon="6.381034">
        <ele>0.000000</ele>
        <time>2009-12-08T16:36:34Z</time>
      </trkpt>
      <trkpt lat="50.668164" lon="6.381034">
        <ele>0.000000</ele>
        <time>2009-12-08T16:36:34Z</time>
      </trkpt>
      <trkpt lat="50.668831" lon="6.380948">
        <ele>0.000000</ele>
        <time>2009-12-08T16:36:34Z</time>
      </trkpt>
      <trkpt lat="50.669558" lon="6.380814">
        <ele>0.000000</ele>
        <time>2009-12-08T16:36:34Z</time>
      </trkpt>
      <trkpt lat="50.670330" lon="6.380798">
        <ele>0.000000</ele>
        <time>2009-12-08T16:36:34Z</time>
      </trkpt>
      <trkpt lat="50.670769" lon="6.380852">
        <ele>0.000000</ele>
        <time>2009-12-08T16:36:34Z</time>
      </trkpt>
      <trkpt lat="50.671013" lon="6.380916">
        <ele>0.000000</ele>
        <time>2009-12-08T16:36:34Z</time>
      </trkpt>
      <trkpt lat="50.671265" lon="6.381045">
        <ele>0.000000</ele>
        <time>2009-12-08T16:36:34Z</time>
      </trkpt>
      <trkpt lat="50.671547" lon="6.381238">
        <ele>0.000000</ele>
        <time>2009-12-08T16:36:34Z</time>
      </trkpt>
      <trkpt lat="50.671918" lon="6.381549">
        <ele>0.000000</ele>
        <time>2009-12-08T16:36:34Z</time>
      </trkpt>
      <trkpt lat="50.672156" lon="6.381812">
        <ele>0.000000</ele>
        <time>2009-12-08T16:36:34Z</time>
      </trkpt>
      <trkpt lat="50.672367" lon="6.382053">
        <ele>0.000000</ele>
        <time>2009-12-08T16:36:34Z</time>
      </trkpt>
      <trkpt lat="50.672469" lon="6.382161">
        <ele>0.000000</ele>
        <time>2009-12-08T16:36:34Z</time>
      </trkpt>
      <trkpt lat="50.672543" lon="6.382172">
        <ele>0.000000</ele>
        <time>2009-12-08T16:36:34Z</time>
      </trkpt>
      <trkpt lat="50.672601" lon="6.382123">
        <ele>0.000000</ele>
        <time>2009-12-08T16:36:34Z</time>
      </trkpt>
      <trkpt lat="50.672642" lon="6.382059">
        <ele>0.000000</ele>
        <time>2009-12-08T16:36:34Z</time>
      </trkpt>
      <trkpt lat="50.672635" lon="6.381973">
        <ele>0.000000</ele>
        <time>2009-12-08T16:36:34Z</time>
      </trkpt>
      <trkpt lat="50.672584" lon="6.381469">
        <ele>0.000000</ele>
        <time>2009-12-08T16:36:34Z</time>
      </trkpt>
      <trkpt lat="50.672571" lon="6.381367">
        <ele>0.000000</ele>
        <time>2009-12-08T16:36:34Z</time>
      </trkpt>
      <trkpt lat="50.672584" lon="6.381104">
        <ele>0.000000</ele>
        <time>2009-12-08T16:36:34Z</time>
      </trkpt>
      <trkpt lat="50.672649" lon="6.380830">
        <ele>0.000000</ele>
        <time>2009-12-08T16:36:34Z</time>
      </trkpt>
      <trkpt lat="50.672710" lon="6.380482">
        <ele>0.000000</ele>
        <time>2009-12-08T16:36:34Z</time>
      </trkpt>
      <trkpt lat="50.672713" lon="6.379919">
        <ele>0.000000</ele>
        <time>2009-12-08T16:36:34Z</time>
      </trkpt>
      <trkpt lat="50.672734" lon="6.379194">
        <ele>0.000000</ele>
        <time>2009-12-08T16:36:34Z</time>
      </trkpt>
      <trkpt lat="50.672798" lon="6.378787">
        <ele>0.000000</ele>
        <time>2009-12-08T16:36:34Z</time>
      </trkpt>
      <trkpt lat="50.672917" lon="6.378234">
        <ele>0.000000</ele>
        <time>2009-12-08T16:36:34Z</time>
      </trkpt>
      <trkpt lat="50.673176" lon="6.377805">
        <ele>0.000000</ele>
        <time>2009-12-08T16:36:34Z</time>
      </trkpt>
      <trkpt lat="50.673291" lon="6.377542">
        <ele>0.000000</ele>
        <time>2009-12-08T16:36:34Z</time>
      </trkpt>
      <trkpt lat="50.673455" lon="6.377086">
        <ele>0.000000</ele>
        <time>2009-12-08T16:36:34Z</time>
      </trkpt>
      <trkpt lat="50.673505" lon="6.376914">
        <ele>0.000000</ele>
        <time>2009-12-08T16:36:34Z</time>
      </trkpt>
      <trkpt lat="50.673777" lon="6.376550">
        <ele>0.000000</ele>
        <time>2009-12-08T16:36:34Z</time>
      </trkpt>
      <trkpt lat="50.674114" lon="6.376185">
        <ele>0.000000</ele>
        <time>2009-12-08T16:36:34Z</time>
      </trkpt>
      <trkpt lat="50.674274" lon="6.375981">
        <ele>0.000000</ele>
        <time>2009-12-08T16:36:34Z</time>
      </trkpt>
      <trkpt lat="50.674335" lon="6.375831">
        <ele>0.000000</ele>
        <time>2009-12-08T16:36:34Z</time>
      </trkpt>
      <trkpt lat="50.674359" lon="6.375241">
        <ele>0.000000</ele>
        <time>2009-12-08T16:36:34Z</time>
      </trkpt>
      <trkpt lat="50.674355" lon="6.374946">
        <ele>0.000000</ele>
        <time>2009-12-08T16:36:34Z</time>
      </trkpt>
      <trkpt lat="50.674328" lon="6.374484">
        <ele>0.000000</ele>
        <time>2009-12-08T16:36:34Z</time>
      </trkpt>
      <trkpt lat="50.674230" lon="6.374195">
        <ele>0.000000</ele>
        <time>2009-12-08T16:36:34Z</time>
      </trkpt>
      <trkpt lat="50.674077" lon="6.373975">
        <ele>0.000000</ele>
        <time>2009-12-08T16:36:34Z</time>
      </trkpt>
      <trkpt lat="50.673862" lon="6.373717">
        <ele>0.000000</ele>
        <time>2009-12-08T16:36:34Z</time>
      </trkpt>
      <trkpt lat="50.673777" lon="6.373663">
        <ele>0.000000</ele>
        <time>2009-12-08T16:36:34Z</time>
      </trkpt>
      <trkpt lat="50.672805" lon="6.373283">
        <ele>0.000000</ele>
        <time>2009-12-08T16:36:34Z</time>
      </trkpt>
      <trkpt lat="50.671500" lon="6.372886">
        <ele>0.000000</ele>
        <time>2009-12-08T16:36:34Z</time>
      </trkpt>
      <trkpt lat="50.671180" lon="6.372714">
        <ele>0.000000</ele>
        <time>2009-12-08T16:36:34Z</time>
      </trkpt>
      <trkpt lat="50.670952" lon="6.372548">
        <ele>0.000000</ele>
        <time>2009-12-08T16:36:34Z</time>
      </trkpt>
      <trkpt lat="50.670626" lon="6.372172">
        <ele>0.000000</ele>
        <time>2009-12-08T16:36:34Z</time>
      </trkpt>
      <trkpt lat="50.669970" lon="6.371357">
        <ele>0.000000</ele>
        <time>2009-12-08T16:36:34Z</time>
      </trkpt>
      <trkpt lat="50.669936" lon="6.371271">
        <ele>0.000000</ele>
        <time>2009-12-08T16:36:34Z</time>
      </trkpt>
      <trkpt lat="50.669925" lon="6.371175">
        <ele>0.000000</ele>
        <time>2009-12-08T16:36:34Z</time>
      </trkpt>
      <trkpt lat="50.669871" lon="6.370938">
        <ele>0.000000</ele>
        <time>2009-12-08T16:36:34Z</time>
      </trkpt>
      <trkpt lat="50.669752" lon="6.370681">
        <ele>0.000000</ele>
        <time>2009-12-08T16:36:34Z</time>
      </trkpt>
      <trkpt lat="50.669599" lon="6.370364">
        <ele>0.000000</ele>
        <time>2009-12-08T16:36:34Z</time>
      </trkpt>
      <trkpt lat="50.669392" lon="6.369764">
        <ele>0.000000</ele>
        <time>2009-12-08T16:36:34Z</time>
      </trkpt>
      <trkpt lat="50.669215" lon="6.369034">
        <ele>0.000000</ele>
        <time>2009-12-08T16:36:34Z</time>
      </trkpt>
      <trkpt lat="50.669120" lon="6.368535">
        <ele>0.000000</ele>
        <time>2009-12-08T16:36:34Z</time>
      </trkpt>
      <trkpt lat="50.668994" lon="6.367226">
        <ele>0.000000</ele>
        <time>2009-12-08T16:36:34Z</time>
      </trkpt>
      <trkpt lat="50.668919" lon="6.366084">
        <ele>0.000000</ele>
        <time>2009-12-08T16:36:34Z</time>
      </trkpt>
      <trkpt lat="50.668909" lon="6.365917">
        <ele>0.000000</ele>
        <time>2009-12-08T16:36:34Z</time>
      </trkpt>
      <trkpt lat="50.668929" lon="6.365815">
        <ele>0.000000</ele>
        <time>2009-12-08T16:36:34Z</time>
      </trkpt>
      <trkpt lat="50.669038" lon="6.365692">
        <ele>0.000000</ele>
        <time>2009-12-08T16:36:34Z</time>
      </trkpt>
      <trkpt lat="50.669116" lon="6.365590">
        <ele>0.000000</ele>
        <time>2009-12-08T16:36:34Z</time>
      </trkpt>
      <trkpt lat="50.669212" lon="6.365370">
        <ele>0.000000</ele>
        <time>2009-12-08T16:36:34Z</time>
      </trkpt>
      <trkpt lat="50.669232" lon="6.365365">
        <ele>0.000000</ele>
        <time>2009-12-08T16:36:34Z</time>
      </trkpt>
      <trkpt lat="50.669283" lon="6.365537">
        <ele>0.000000</ele>
        <time>2009-12-08T16:36:34Z</time>
      </trkpt>
      <trkpt lat="50.669412" lon="6.365681">
        <ele>0.000000</ele>
        <time>2009-12-08T16:36:34Z</time>
      </trkpt>
      <trkpt lat="50.669422" lon="6.365322">
        <ele>0.000000</ele>
        <time>2009-12-08T16:36:34Z</time>
      </trkpt>
      <trkpt lat="50.669432" lon="6.364973">
        <ele>0.000000</ele>
        <time>2009-12-08T16:36:34Z</time>
      </trkpt>
      <trkpt lat="50.669419" lon="6.364673">
        <ele>0.000000</ele>
        <time>2009-12-08T16:36:34Z</time>
      </trkpt>
      <trkpt lat="50.669344" lon="6.364045">
        <ele>0.000000</ele>
        <time>2009-12-08T16:36:34Z</time>
      </trkpt>
      <trkpt lat="50.669341" lon="6.363788">
        <ele>0.000000</ele>
        <time>2009-12-08T16:36:34Z</time>
      </trkpt>
      <trkpt lat="50.669429" lon="6.363407">
        <ele>0.000000</ele>
        <time>2009-12-08T16:36:34Z</time>
      </trkpt>
      <trkpt lat="50.669487" lon="6.363155">
        <ele>0.000000</ele>
        <time>2009-12-08T16:36:34Z</time>
      </trkpt>
      <trkpt lat="50.669490" lon="6.362806">
        <ele>0.000000</ele>
        <time>2009-12-08T16:36:34Z</time>
      </trkpt>
      <trkpt lat="50.669266" lon="6.362280">
        <ele>0.000000</ele>
        <time>2009-12-08T16:36:34Z</time>
      </trkpt>
      <trkpt lat="50.669035" lon="6.361824">
        <ele>0.000000</ele>
        <time>2009-12-08T16:36:34Z</time>
      </trkpt>
      <trkpt lat="50.668793" lon="6.361213">
        <ele>0.000000</ele>
        <time>2009-12-08T16:36:34Z</time>
      </trkpt>
      <trkpt lat="50.668661" lon="6.360875">
        <ele>0.000000</ele>
        <time>2009-12-08T16:36:34Z</time>
      </trkpt>
      <trkpt lat="50.668055" lon="6.359775">
        <ele>0.000000</ele>
        <time>2009-12-08T16:36:34Z</time>
      </trkpt>
      <trkpt lat="50.667841" lon="6.359560">
        <ele>0.000000</ele>
        <time>2009-12-08T16:36:34Z</time>
      </trkpt>
      <trkpt lat="50.667321" lon="6.359314">
        <ele>0.000000</ele>
        <time>2009-12-08T16:36:34Z</time>
      </trkpt>
      <trkpt lat="50.667120" lon="6.359292">
        <ele>0.000000</ele>
        <time>2009-12-08T16:36:34Z</time>
      </trkpt>
      <trkpt lat="50.666746" lon="6.359362">
        <ele>0.000000</ele>
        <time>2009-12-08T16:36:34Z</time>
      </trkpt>
      <trkpt lat="50.666420" lon="6.359362">
        <ele>0.000000</ele>
        <time>2009-12-08T16:36:34Z</time>
      </trkpt>
      <trkpt lat="50.665771" lon="6.359357">
        <ele>0.000000</ele>
        <time>2009-12-08T16:36:34Z</time>
      </trkpt>
      <trkpt lat="50.665580" lon="6.359169">
        <ele>0.000000</ele>
        <time>2009-12-08T16:36:34Z</time>
      </trkpt>
      <trkpt lat="50.665417" lon="6.359013">
        <ele>0.000000</ele>
        <time>2009-12-08T16:36:34Z</time>
      </trkpt>
      <trkpt lat="50.665210" lon="6.358901">
        <ele>0.000000</ele>
        <time>2009-12-08T16:36:34Z</time>
      </trkpt>
      <trkpt lat="50.664961" lon="6.358852">
        <ele>0.000000</ele>
        <time>2009-12-08T16:36:34Z</time>
      </trkpt>
      <trkpt lat="50.664890" lon="6.358788">
        <ele>0.000000</ele>
        <time>2009-12-08T16:36:34Z</time>
      </trkpt>
      <trkpt lat="50.664842" lon="6.358713">
        <ele>0.000000</ele>
        <time>2009-12-08T16:36:34Z</time>
      </trkpt>
      <trkpt lat="50.664822" lon="6.358627">
        <ele>0.000000</ele>
        <time>2009-12-08T16:36:34Z</time>
      </trkpt>
      <trkpt lat="50.664836" lon="6.358504">
        <ele>0.000000</ele>
        <time>2009-12-08T16:36:34Z</time>
      </trkpt>
      <trkpt lat="50.664968" lon="6.358407">
        <ele>0.000000</ele>
        <time>2009-12-08T16:36:34Z</time>
      </trkpt>
      <trkpt lat="50.665247" lon="6.358273">
        <ele>0.000000</ele>
        <time>2009-12-08T16:36:34Z</time>
      </trkpt>
      <trkpt lat="50.665427" lon="6.358257">
        <ele>0.000000</ele>
        <time>2009-12-08T16:36:34Z</time>
      </trkpt>
      <trkpt lat="50.665631" lon="6.358305">
        <ele>0.000000</ele>
        <time>2009-12-08T16:36:34Z</time>
      </trkpt>
      <trkpt lat="50.665778" lon="6.358359">
        <ele>0.000000</ele>
        <time>2009-12-08T16:36:34Z</time>
      </trkpt>
      <trkpt lat="50.665975" lon="6.358391">
        <ele>0.000000</ele>
        <time>2009-12-08T16:36:34Z</time>
      </trkpt>
      <trkpt lat="50.666185" lon="6.358284">
        <ele>0.000000</ele>
        <time>2009-12-08T16:36:34Z</time>
      </trkpt>
      <trkpt lat="50.666325" lon="6.358219">
        <ele>0.000000</ele>
        <time>2009-12-08T16:36:34Z</time>
      </trkpt>
      <trkpt lat="50.666393" lon="6.358096">
        <ele>0.000000</ele>
        <time>2009-12-08T16:36:34Z</time>
      </trkpt>
      <trkpt lat="50.666407" lon="6.357758">
        <ele>0.000000</ele>
        <time>2009-12-08T16:36:34Z</time>
      </trkpt>
      <trkpt lat="50.666498" lon="6.357120">
        <ele>0.000000</ele>
        <time>2009-12-08T16:36:34Z</time>
      </trkpt>
      <trkpt lat="50.666498" lon="6.356674">
        <ele>0.000000</ele>
        <time>2009-12-08T16:36:34Z</time>
      </trkpt>
      <trkpt lat="50.666434" lon="6.355612">
        <ele>0.000000</ele>
        <time>2009-12-08T16:36:34Z</time>
      </trkpt>
      <trkpt lat="50.666298" lon="6.354116">
        <ele>0.000000</ele>
        <time>2009-12-08T16:36:34Z</time>
      </trkpt>
      <trkpt lat="50.666168" lon="6.353595">
        <ele>0.000000</ele>
        <time>2009-12-08T16:36:34Z</time>
      </trkpt>
      <trkpt lat="50.666862" lon="6.353257">
        <ele>0.000000</ele>
        <time>2009-12-08T16:36:34Z</time>
      </trkpt>
    </trkseg>
  </trk>

</gpx>
